Hourly Data Report for September 19, 2017

All times are specified in Local Standard Time (LST). Add 1 hour to adjust for Daylight Saving Time where and when it is observed.

ARCTIC BAY CS
NUNAVUT

72°59'34.000" N
85°00'44.000" W
10.00 m
2400404
71592
XAT

Download Data

Hourly Data (September 2017)
Hourly Data Report for September 19, 2017
Temp Definition
°C
Dew Point Temp Definition
°C
Rel Hum Definition
%
Wind Dir Definition
10's deg

Wind Spd Definition
km/h
Visibility Definition
km
Stn Press Definition
kPa
Hmdx Definition


Wind Chill Definition


Weather Definition


TIME
00:00 -2.5 -6.3 75 1 16   101.63   -8 LegendNANA
01:00 -2.6 -6.1 77 2 16   101.66   -8 LegendNANA
02:00 -1.8 -7.0 68 2 7   101.69   -4 LegendNANA
03:00 -2.4 -7.0 71 4 14   101.77   -7 LegendNANA
04:00 -3.2 -6.8 76 11 8   101.82   -6 LegendNANA
05:00 -4.5 -8.0 77 5 4   101.89   -6 LegendNANA
06:00 -3.8 -7.5 76 10 6   101.92   -6 LegendNANA
07:00 -4.2 -7.8 76 6 11   101.98   -9 LegendNANA
08:00 -5.4 -8.9 76 13 13   102.03   -11 LegendNANA
09:00 -4.5 -8.5 74 11 8   102.07   -8 LegendNANA
10:00 -4.0 -8.2 73 7 15   102.10   -9 LegendNANA
11:00 -3.9 -8.4 71 7 14   102.15   -9 LegendNANA
12:00 -3.1 -7.9 69 8 12   102.19   -8 LegendNANA
13:00 -3.2 -8.0 69 7 14   102.20   -8 LegendNANA
14:00 -3.5 -8.0 71 7 14   102.24   -9 LegendNANA
15:00 -3.3 -7.8 71 7 16   102.25   -9 LegendNANA
16:00 -2.7 -7.3 70 5 10   102.28   -7 LegendNANA
17:00 -3.7 -8.0 72 7 21   102.32   -10 LegendNANA
18:00 -3.7 -8.0 72 7 16   102.33   -9 LegendNANA
19:00 -4.5 -8.5 73 6 20   102.37   -11 LegendNANA
20:00 -4.9 -8.9 74 6 23   102.38   -12 LegendNANA
21:00 -4.9 -9.2 72 7 20   102.45   -11 LegendNANA
22:00 -5.3 -9.1 75 7 17   102.50   -11 LegendNANA
23:00 -5.7 -9.7 73 8 11   102.54   -10 LegendNANA

Notes on Data Quality.

Legend

  • E = Estimated
  • M = Missing
  • NA = Not Available
  • ‡ = Partner data that is not subject to review by the National Climate Archives
Date modified: